New Orleans Lakefront, LA

4:11 PM CDT on May 25, 2018 (GMT -0500)
Lakefront

Weather History for KNEW - March, 2013

Change the Weather History Date:

Tuesday, March 12, 2013

  Actual Average Record
Temperature  
Mean Temperature 57 °F 62 °F  
Max Temperature 66 °F 71 °F 86 °F (1974)
Min Temperature 47 °F 53 °F 33 °F (1969)
Degree Days  
Heating Degree Days 8 5  
Month to date heating degree days 114 68  
Since 1 July heating degree days 1003 1177  
Cooling Degree Days 0 2  
Month to date cooling degree days 5 19  
Year to date cooling degree days 37 56  
Growing Degree Days 8 (Base 50)    
Moisture  
Dew Point 42 °F    
Average Humidity 56    
Maximum Humidity 77    
Minimum Humidity 34    
Precipitation  
Precipitation 0.00 in 0.14 in 1.17 in (1993)
Month to date precipitation 0.66 1.78  
Year to date precipitation 14.46 12.23  
Snow  
Snow 0.00 in - - ()
Month to date snowfall 0.0  
Since 1 July snowfall 0.0  
Snow Depth 0.00 in    
Sea Level Pressure  
Sea Level Pressure 30.12 in    
Wind  
Wind Speed 7 mph (NNW)    
Max Wind Speed 14 mph    
Max Gust Speed 18 mph    
Visibility 10 miles    
Events      
T = Trace of Precipitation, MM = Missing Value Source: NWS Daily Summary

Daily Weather History Graph

Daily Weather History Graph

Search for Another Location

Airport or City:

Astronomy

Mar. 12, 2013 Rise Set
Actual Time 7:13 AM CDT 7:06 PM CDT
Civil Twilight 6:49 AM CDT 7:30 PM CDT
Nautical Twilight 6:21 AM CDT 7:58 PM CDT
Astronomical Twilight 5:53 AM CDT 8:26 PM CDT
Moon 7:26 AM CDT (3/12) 8:12 PM CDT (3/12)
Length of Visible Light 12h 41m
Length of Day
11h 53m
New Moon, 1% of the Moon is Illuminated
Mar 12
New Moon
Mar 19
First Quarter
Mar 27
Full
Apr 2
Last Quarter
Apr 10
New

Hourly Weather History & Observations

Time (CDT) Temp. Dew Point Humidity Pressure Visibility Wind Dir Wind Speed Gust Speed Precip Events Conditions
12:53 AM 55.9 °F 39.9 °F 55% 30.03 in 10.0 mi North 17.3 mph - N/A   Clear
1:53 AM 55.9 °F 39.0 °F 53% 30.04 in 10.0 mi North 16.1 mph - N/A   Clear
2:53 AM 55.0 °F 39.9 °F 57% 30.03 in 10.0 mi North 17.3 mph - N/A   Clear
3:53 AM 55.0 °F 39.0 °F 55% 30.04 in 10.0 mi North 15.0 mph - N/A   Clear
4:53 AM 54.0 °F 39.0 °F 57% 30.05 in 10.0 mi North 11.5 mph - N/A   Clear
5:53 AM 53.1 °F 39.0 °F 59% 30.07 in 10.0 mi North 11.5 mph - N/A   Clear
6:53 AM 52.0 °F 39.0 °F 61% 30.09 in 10.0 mi NNE 10.4 mph - N/A   Clear
7:53 AM 52.0 °F 39.0 °F 61% 30.11 in 10.0 mi NE 9.2 mph - N/A   Clear
8:53 AM 53.1 °F 39.0 °F 59% 30.14 in 10.0 mi NE 11.5 mph - N/A   Clear
9:53 AM 54.0 °F 39.0 °F 57% 30.16 in 10.0 mi NE 9.2 mph - N/A   Clear
10:53 AM 55.9 °F 37.9 °F 51% 30.17 in 10.0 mi NE 4.6 mph - N/A   Clear
11:53 AM 57.0 °F 39.0 °F 51% 30.17 in 10.0 mi NNE 3.5 mph - N/A   Clear
12:53 PM 57.9 °F 39.9 °F 51% 30.16 in 10.0 mi West 5.8 mph - N/A   Clear
1:53 PM 62.1 °F 39.9 °F 44% 30.14 in 10.0 mi West 6.9 mph - N/A   Clear
2:53 PM 63.0 °F 42.1 °F 46% 30.12 in 10.0 mi West 11.5 mph - N/A   Clear
3:53 PM 64.0 °F 41.0 °F 43% 30.10 in 10.0 mi West 12.7 mph - N/A   Clear
4:53 PM 64.9 °F 42.1 °F 43% 30.11 in 10.0 mi West 11.5 mph - N/A   Clear
5:53 PM 64.9 °F 46.0 °F 50% 30.11 in 10.0 mi West 10.4 mph - N/A   Clear
6:53 PM 64.0 °F 48.0 °F 56% 30.12 in 10.0 mi WSW 9.2 mph - N/A   Clear
7:53 PM 63.0 °F 48.9 °F 60% 30.15 in 10.0 mi West 5.8 mph - N/A   Clear
8:53 PM 63.0 °F 50.0 °F 63% 30.17 in 8.0 mi WNW 5.8 mph - N/A   Clear
9:53 PM 63.0 °F 51.1 °F 65% 30.19 in 10.0 mi NNW 4.6 mph - N/A   Clear
10:53 PM 62.1 °F 48.0 °F 60% 30.20 in 10.0 mi North 6.9 mph - N/A   Clear
11:53 PM 61.0 °F 50.0 °F 67% 30.20 in 10.0 mi North 6.9 mph - N/A   Clear